Date,TemperatureHighF,TemperatureAvgF,TemperatureLowF,DewpointHighF,DewpointAvgF,DewpointLowF,HumidityHigh,HumidityAvg,HumidityLow,PressureMaxIn,PressureMinIn,WindSpeedMaxMPH,WindSpeedAvgMPH,GustSpeedMaxMPH,PrecipitationSumIn
2013-1-1,36.0,31.7,29.5,32.1,28.2,26.1,87,87,86,30.34,30.28,0,0,0,0.00
2013-1-2,35.2,28.2,25.9,31.1,24.5,22.5,88,86,85,30.28,30.15,0,0,0,0.00
2013-1-3,39.4,34.7,27.0,36.0,30.8,20.5,89,86,82,30.23,30.12,0,0,0,0.00
2013-1-4,49.6,43.2,39.7,45.6,40.0,37.0,91,89,85,30.28,30.13,0,0,3,0.00
2013-1-5,41.0,38.8,37.0,38.3,36.4,34.6,91,91,90,30.17,30.13,0,0,4,0.00
2013-1-6,47.1,41.5,37.8,44.1,38.9,35.3,93,90,88,30.20,30.09,0,0,0,0.00
2013-1-7,52.2,47.2,43.0,49.3,44.8,40.5,94,91,89,30.20,30.04,4,0,5,0.00
2013-1-8,53.4,49.0,46.0,48.3,45.7,42.4,93,88,81,30.19,29.94,0,0,7,0.00
2013-1-9,48.2,42.5,36.3,44.1,39.0,33.3,89,87,85,29.97,29.74,8,1,8,0.00
2013-1-10,41.2,37.0,34.3,37.9,34.0,31.4,91,89,88,30.10,29.96,0,0,0,0.00
2013-1-11,36.9,33.1,28.6,34.0,30.2,25.5,92,89,88,30.27,30.09,0,0,0,0.00
2013-1-12,34.9,29.3,23.7,31.4,26.1,20.4,89,88,86,30.36,30.26,0,0,0,0.00
2013-1-13,30.0,29.1,28.0,26.7,25.7,24.9,89,87,85,30.45,30.35,0,0,0,0.00
2013-1-14,35.4,31.8,28.9,31.0,28.1,25.4,87,86,84,30.53,30.44,0,0,0,0.00
2013-1-15,37.9,35.4,30.6,34.8,32.4,27.5,90,89,87,30.61,30.51,0,0,0,0.00
2013-1-16,35.4,34.3,32.7,32.5,31.5,30.1,90,90,89,30.60,30.45,0,0,0,0.00
2013-1-17,34.3,32.6,31.3,31.6,30.1,28.8,91,90,90,30.45,30.28,0,0,0,0.00
2013-1-18,35.2,32.1,29.8,32.5,29.6,27.3,91,90,90,30.29,30.24,0,0,0,0.00
2013-1-19,34.3,31.7,29.5,31.6,29.1,27.0,91,90,90,30.30,30.24,0,0,0,0.00
2013-1-20,31.8,30.5,29.3,29.3,28.0,26.8,90,90,90,30.32,30.21,0,0,0,0.00
2013-1-21,32.2,29.5,27.3,29.6,27.0,24.8,90,90,90,30.25,30.12,0,0,0,0.00
2013-1-22,32.2,29.7,27.1,29.6,27.2,24.6,90,90,89,30.12,29.90,0,0,0,0.00
2013-1-23,35.4,33.3,30.7,33.3,31.0,28.2,92,91,90,30.16,29.86,0,0,0,0.00
2013-1-24,43.5,36.9,34.0,41.9,34.8,31.6,94,92,91,30.18,30.08,0,0,0,0.00
2013-1-25,49.6,45.2,39.6,47.9,43.5,37.9,94,94,93,30.12,29.95,0,0,0,0.02
2013-1-26,45.0,40.8,38.5,42.3,39.0,36.6,94,93,88,30.02,29.94,1,0,5,0.00
2013-1-27,45.5,40.4,38.7,42.2,37.9,36.2,93,91,88,30.15,29.97,0,0,5,0.00
2013-1-28,42.6,39.9,37.9,40.5,37.6,35.5,94,92,90,30.23,29.96,3,0,6,0.00
2013-1-29,46.0,43.1,42.1,44.1,41.0,39.9,93,92,92,30.48,30.23,8,0,8,0.00
2013-1-30,46.9,44.1,41.9,45.0,42.2,39.9,94,93,92,30.49,30.42,5,0,5,0.00
2013-1-31,52.7,46.9,43.9,49.0,44.3,42.0,94,91,84,30.43,30.31,2,0,2,0.00
2013-2-1,49.8,42.2,36.3,47.0,39.4,33.3,92,90,88,30.32,30.20,0,0,0,0.00
2013-2-2,44.1,39.8,36.1,41.9,37.4,33.2,92,91,89,30.29,30.22,0,0,0,0.00
2013-2-3,49.3,43.7,37.9,45.5,40.9,35.5,93,90,83,30.31,30.20,0,0,1,0.00
2013-2-4,52.5,45.9,41.7,46.9,42.3,39.3,91,87,79,30.20,29.91,3,0,3,0.00
2013-2-5,49.8,45.8,43.0,45.7,41.7,39.4,91,86,79,30.06,29.92,6,0,7,0.00
2013-2-6,52.2,45.9,42.1,42.9,40.7,37.5,89,82,69,30.10,29.83,5,0,8,0.00
2013-2-7,46.9,41.0,36.3,41.2,37.0,32.5,90,86,76,30.09,29.93,2,0,2,0.00
2013-2-8,45.5,38.8,36.0,39.1,34.8,32.6,90,85,77,30.25,30.09,0,0,0,0.00
2013-2-9,44.4,40.2,36.3,39.6,36.4,32.6,89,86,82,30.28,30.23,0,0,0,0.00
2013-2-10,44.8,42.3,40.8,40.9,38.7,37.4,91,87,82,30.31,30.26,0,0,0,0.00
2013-2-11,47.1,43.2,39.7,40.8,38.8,36.4,89,85,76,30.37,30.28,0,0,0,0.00
2013-2-12,52.9,47.0,43.3,48.5,43.8,40.5,92,88,83,30.46,30.37,4,0,4,0.00
2013-2-13,51.1,48.0,46.0,46.4,44.3,43.0,91,87,82,30.47,30.41,0,0,2,0.00
2013-2-14,58.6,48.1,40.6,48.5,42.6,36.1,91,81,67,30.53,30.42,0,0,0,0.00
2013-2-15,50.5,42.4,37.4,45.8,38.5,33.5,89,86,82,30.42,30.19,0,0,0,0.00
2013-2-16,48.9,41.4,33.4,46.5,38.0,29.9,93,88,84,30.27,30.20,5,0,5,0.00
2013-2-17,49.3,41.7,36.0,40.6,36.0,30.7,90,81,64,30.27,30.05,0,0,0,0.00
2013-2-18,47.3,39.5,32.7,37.7,33.4,28.9,88,79,66,30.05,29.72,3,0,3,0.00
2013-2-19,48.6,42.1,37.6,41.6,37.0,33.3,89,82,73,29.97,29.63,0,0,2,0.00
2013-2-20,48.7,41.7,37.2,40.9,36.5,32.4,89,82,68,30.10,29.97,0,0,3,0.00
2013-2-21,44.1,40.7,38.1,40.4,37.3,34.7,90,88,83,30.21,30.10,2,0,4,0.00
2013-2-22,44.1,42.1,38.5,40.8,38.8,34.3,90,88,81,30.19,29.93,8,0,10,0.00
2013-2-23,45.0,39.7,34.3,39.7,35.9,30.8,90,86,80,30.42,30.09,8,0,8,0.16
2013-2-24,54.1,42.0,33.6,43.0,36.1,30.4,91,80,61,30.42,30.08,0,0,0,0.04
2013-2-25,48.7,42.4,37.9,41.1,37.0,33.4,87,81,64,30.37,30.05,8,1,10,0.12
2013-2-26,51.8,41.8,34.0,40.8,35.6,30.4,89,79,61,30.37,30.21,8,0,8,0.02
2013-2-27,50.5,44.7,39.7,44.9,40.0,34.7,88,84,77,30.29,30.20,0,0,4,0.04
2013-2-28,55.9,50.8,46.2,52.4,47.7,42.9,92,89,85,30.44,30.19,6,0,6,0.16
2013-3-1,62.6,54.0,48.6,53.6,48.9,44.5,92,83,69,30.44,30.28,3,0,5,0.02
2013-3-2,53.4,49.6,44.8,48.7,45.5,40.5,88,86,83,30.28,30.16,3,0,5,0.08
2013-3-3,53.6,44.3,34.9,40.5,35.0,27.6,88,71,53,30.28,30.18,3,0,4,0.08
2013-3-4,57.0,37.6,28.6,42.4,29.8,23.2,83,74,55,30.18,29.90,0,0,0,0.00
2013-3-5,56.5,42.2,37.0,44.0,37.0,32.3,89,82,55,29.97,29.68,0,0,4,0.14
2013-3-6,48.9,42.4,37.8,43.8,38.9,33.3,90,87,82,29.95,29.52,0,0,6,0.67
2013-3-7,58.3,45.1,34.3,45.2,37.5,31.4,91,76,52,30.02,29.94,0,0,0,0.08
2013-3-8,57.6,44.1,35.2,45.3,36.9,30.2,88,77,60,30.17,29.98,2,0,2,0.00
2013-3-9,62.8,45.6,32.7,46.5,36.5,28.7,88,72,47,30.46,30.17,0,0,2,0.00
2013-3-10,54.1,45.1,35.2,45.3,39.0,29.7,86,80,71,30.46,30.36,0,0,3,0.00
2013-3-11,58.8,51.7,47.5,52.5,47.2,43.8,90,85,78,30.39,30.21,0,0,0,0.00
2013-3-12,59.2,51.5,45.3,51.3,46.4,40.9,89,83,73,30.22,30.13,0,0,0,0.00
2013-3-13,67.8,56.7,47.1,55.5,49.4,43.2,88,77,63,30.20,30.05,2,0,2,0.00
2013-3-14,58.5,52.8,47.1,51.0,46.4,43.0,88,79,62,30.20,30.02,6,0,7,0.00
2013-3-15,64.6,56.0,51.4,52.9,48.7,45.4,87,77,62,30.21,30.13,5,0,5,0.00
2013-3-16,52.5,49.2,43.0,45.9,43.6,38.4,85,81,77,30.17,30.01,6,0,6,0.18
2013-3-17,49.8,42.1,36.3,43.2,36.2,32.4,88,80,63,30.29,30.01,7,0,7,0.18
2013-3-18,58.5,42.4,32.5,42.9,35.4,27.9,87,77,53,30.29,30.10,0,0,2,0.18
2013-3-19,58.5,45.1,32.5,42.5,36.5,27.8,86,73,53,30.26,29.74,0,0,0,0.10
2013-3-20,52.0,47.0,37.0,48.5,41.9,30.7,91,83,69,30.25,29.57,10,1,16,0.73
2013-3-21,56.5,44.9,37.4,48.6,39.1,31.1,92,81,53,30.29,29.57,9,1,14,0.73
2013-3-22,52.5,42.6,35.4,48.5,35.6,30.4,91,77,60,30.33,29.58,10,1,10,0.73
2013-3-23,51.4,40.8,33.8,48.1,34.2,29.1,91,78,58,30.36,29.62,8,0,8,0.59
2013-3-24,56.5,42.7,33.8,43.2,35.0,29.4,86,75,59,30.35,29.89,10,0,10,0.04
2013-3-25,57.9,48.1,38.8,45.7,39.7,33.5,86,73,60,30.04,29.88,3,0,3,0.00
2013-3-26,55.2,49.5,45.7,47.4,43.7,40.8,86,80,73,30.00,29.93,0,0,0,0.00
2013-3-27,63.7,51.3,41.5,53.3,44.8,36.7,88,79,64,29.97,29.87,7,0,7,0.02
2013-3-28,67.8,55.9,48.6,54.2,48.7,44.5,89,78,55,30.11,29.96,6,0,6,0.04
2013-3-29,71.8,58.1,49.1,56.5,49.8,44.9,88,75,57,30.17,30.08,0,0,2,0.02
2013-3-30,75.0,58.7,43.5,58.2,48.7,37.8,87,71,52,30.13,29.90,4,0,4,0.02
2013-3-31,74.3,61.1,50.2,56.9,50.9,45.2,84,70,52,30.00,29.89,8,0,8,0.00
2013-4-1,61.0,56.9,54.0,52.3,50.0,48.0,83,78,73,30.15,29.99,0,0,1,0.00
2013-4-2,69.6,58.2,50.9,54.3,49.1,44.1,84,73,54,30.19,30.08,6,0,6,0.00
2013-4-3,66.0,54.6,43.3,55.0,46.8,37.1,84,75,67,30.13,29.87,0,0,0,0.00
2013-4-4,61.2,56.0,52.7,55.7,50.8,47.6,89,83,72,29.88,29.68,12,0,19,0.10
2013-4-5,57.4,53.4,50.9,50.2,47.9,46.6,88,82,74,29.96,29.83,7,0,8,0.18
2013-4-6,55.6,50.7,47.3,47.6,45.7,43.8,88,83,71,30.00,29.70,7,0,12,0.53
2013-4-7,51.6,47.7,43.9,46.7,42.0,38.9,88,81,68,29.97,29.63,19,2,19,0.41
2013-4-8,54.9,47.7,41.5,45.3,41.8,37.6,88,80,69,30.26,29.96,2,0,6,0.10
2013-4-9,59.4,49.8,40.3,48.4,42.8,35.7,86,77,66,30.33,30.21,0,0,0,0.00
2013-4-10,61.9,53.2,47.8,52.3,45.5,39.7,85,76,63,30.31,30.16,9,0,11,0.02
2013-4-11,59.0,50.1,43.3,44.0,40.1,35.7,82,69,54,30.32,30.13,4,0,4,0.02
2013-4-12,55.4,46.4,35.8,46.2,38.8,29.9,84,75,66,30.12,29.86,6,0,6,0.02
2013-4-13,53.8,45.9,41.0,42.7,37.4,34.8,84,72,57,30.10,29.93,8,0,8,0.04
2013-4-14,49.3,44.4,41.5,41.1,38.1,35.4,84,78,70,30.09,29.91,3,0,6,0.16
2013-4-15,54.9,46.6,41.2,42.5,39.0,37.2,87,75,59,30.15,29.92,2,0,4,0.29
2013-4-16,58.8,49.0,43.0,43.2,40.1,37.8,84,72,50,30.36,30.15,7,0,7,0.04
2013-4-17,59.7,48.3,38.1,44.9,40.0,33.1,85,74,54,30.47,30.36,5,0,5,0.04
2013-4-18,62.2,53.6,45.0,48.6,44.1,38.9,81,71,58,30.45,30.31,4,0,4,0.00
2013-4-19,58.1,52.4,49.3,52.6,47.0,44.7,89,82,72,30.31,30.19,9,1,10,0.39
2013-4-20,61.3,53.4,48.7,47.4,45.1,40.6,85,74,58,30.32,30.22,3,0,3,0.02
2013-4-21,56.8,51.0,45.7,47.9,43.7,38.8,82,76,70,30.28,30.20,0,0,0,0.00
2013-4-22,66.4,53.3,40.8,46.7,40.6,34.7,82,64,40,30.35,30.24,5,0,6,0.00
2013-4-23,67.8,53.1,36.5,42.7,36.1,27.7,74,54,35,30.31,30.09,3,0,6,0.00
2013-4-24,73.8,56.7,38.8,47.4,39.0,29.5,72,53,36,30.18,29.95,3,0,6,0.00
2013-4-25,73.8,58.9,43.3,49.9,43.5,35.1,77,58,40,30.10,29.97,0,0,3,0.00
2013-4-26,77.5,62.1,46.2,56.7,47.4,38.4,77,60,42,30.21,30.10,4,0,4,0.00
2013-4-27,73.6,60.4,48.9,53.0,44.2,38.7,74,57,37,30.24,30.16,0,0,0,0.00
2013-4-28,66.6,58.0,51.4,49.9,45.5,40.3,77,64,49,30.27,30.10,0,0,0,0.00
2013-4-29,61.5,54.3,46.0,47.1,41.7,33.0,81,63,46,30.20,30.08,0,0,0,0.04
2013-4-30,59.7,49.4,37.9,40.0,35.3,29.7,75,59,45,30.38,30.20,0,0,0,0.04
2013-5-1,69.4,52.5,35.4,46.9,37.8,26.6,74,59,43,30.46,30.35,0,0,0,0.00
2013-5-2,76.8,60.8,42.1,50.5,42.6,33.4,75,53,34,30.38,30.17,0,0,0,0.00
2013-5-3,77.9,63.4,46.2,53.0,44.5,35.1,69,51,40,30.26,30.05,0,0,0,0.00
2013-5-4,83.1,66.9,47.8,55.8,43.6,37.5,73,46,26,30.07,29.82,10,0,17,0.00
2013-5-5,88.2,71.6,53.4,51.4,45.0,37.3,60,40,26,29.83,29.61,10,0,12,0.00
2013-5-6,79.3,65.2,51.6,58.2,49.1,40.6,71,56,45,29.89,29.74,4,0,4,0.00
2013-5-7,75.7,62.3,49.8,57.1,49.3,40.4,74,63,51,30.02,29.89,6,0,6,0.00
2013-5-8,70.2,58.2,49.8,56.0,48.4,41.0,78,70,60,30.12,30.02,0,0,0,0.00
2013-5-9,79.2,62.8,50.2,60.1,51.2,42.9,82,67,46,30.16,30.02,2,0,2,0.00
2013-5-10,80.4,67.3,52.5,61.7,54.6,45.2,80,65,51,30.17,30.07,0,0,0,0.00
2013-5-11,82.2,68.5,56.8,62.3,55.5,49.3,78,64,47,30.17,29.97,0,0,0,0.00
2013-5-12,73.2,64.7,58.6,61.2,55.2,51.3,81,72,57,30.11,30.04,4,0,4,0.00
2013-5-13,66.2,60.0,53.8,55.2,51.4,44.9,84,74,59,30.19,30.03,10,0,10,0.10
2013-5-14,69.1,59.0,49.8,49.1,45.2,40.7,79,62,42,30.19,30.06,3,0,3,0.00
2013-5-15,59.2,53.5,48.7,52.0,46.1,39.2,83,76,62,30.09,29.99,0,0,0,0.22
2013-5-16,58.8,55.3,53.1,52.5,50.2,48.0,86,83,75,29.99,29.93,0,0,0,0.14
2013-5-17,62.4,55.1,49.6,50.7,48.0,44.8,86,77,62,30.08,29.97,0,0,0,0.04
2013-5-18,57.4,54.3,51.6,51.9,48.8,46.3,85,82,78,30.26,30.08,0,0,0,0.06
2013-5-19,65.8,57.0,52.0,54.5,49.6,43.6,89,77,57,30.37,30.26,4,0,6,0.12
2013-5-20,72.0,56.9,41.7,54.3,46.2,35.6,84,69,52,30.30,29.89,0,0,0,0.02
2013-5-21,56.5,48.6,43.0,47.9,42.7,38.1,85,80,60,30.01,29.82,3,0,3,1.02
2013-5-22,48.9,44.4,40.3,44.9,40.6,36.1,89,86,84,30.00,29.95,5,0,6,0.43
2013-5-23,56.3,49.2,45.0,47.0,44.2,41.6,88,83,69,30.02,29.98,4,0,5,0.24
2013-5-24,58.8,51.8,47.3,48.7,46.0,44.0,88,81,68,30.08,29.97,4,0,7,0.26
2013-5-25,67.5,57.1,47.7,53.5,48.4,43.0,86,74,56,30.06,29.90,3,0,4,0.12
2013-5-26,62.2,56.8,52.5,53.5,49.7,45.9,86,77,67,30.03,29.93,5,0,6,0.49
2013-5-27,63.0,55.9,50.9,58.5,50.9,45.5,90,83,74,29.97,29.74,4,0,8,0.77
2013-5-28,63.7,56.8,52.3,52.7,49.1,47.5,85,76,61,29.93,29.74,6,0,6,0.14
2013-5-29,60.4,55.4,52.3,53.1,49.3,46.2,88,80,70,30.06,29.65,6,0,6,0.59
2013-5-30,62.6,55.7,50.0,49.8,47.5,45.5,85,75,58,30.23,30.06,0,0,2,0.04
2013-5-31,70.0,60.0,49.1,53.5,48.9,43.2,82,68,53,30.29,30.18,0,0,0,0.00
2013-6-1,77.2,62.3,46.9,58.7,50.6,40.4,84,67,50,30.21,29.98,0,0,0,0.00
2013-6-2,73.4,63.5,56.3,54.8,51.8,49.1,79,66,51,30.05,29.99,1,0,3,0.00
2013-6-3,75.6,62.7,50.2,57.3,50.6,42.9,82,66,49,30.08,29.98,2,0,3,0.00
2013-6-4,81.5,66.1,49.8,59.5,52.6,41.8,79,63,46,30.04,29.92,0,0,0,0.00
2013-6-5,84.0,70.7,55.9,60.2,55.9,48.4,80,61,41,30.05,29.92,1,0,5,0.00
2013-6-6,83.1,70.8,59.2,62.2,56.9,51.4,79,63,45,30.01,29.94,0,0,0,0.00
2013-6-7,83.3,69.3,55.6,60.3,53.4,47.0,76,58,41,30.09,30.01,0,0,0,0.00
2013-6-8,80.8,67.8,55.9,55.0,51.4,47.5,79,58,34,30.13,30.00,0,0,0,0.00
2013-6-9,75.9,65.3,54.7,54.0,50.0,45.1,72,58,43,30.06,29.92,0,0,0,0.00
2013-6-10,73.4,61.4,49.8,50.5,46.1,40.8,73,58,43,29.97,29.86,0,0,1,0.00
2013-6-11,65.8,59.8,55.2,48.3,45.6,42.7,69,60,52,30.13,29.97,2,0,3,0.00
2013-6-12,66.2,58.1,52.3,49.6,46.5,43.8,75,66,54,30.17,30.11,0,0,0,0.00
2013-6-13,59.4,55.6,52.3,53.9,48.8,44.5,85,78,65,30.28,30.16,0,0,0,0.33
2013-6-14,71.8,59.9,48.2,55.9,50.3,43.6,88,72,55,30.28,29.94,0,0,0,0.04
2013-6-15,78.6,63.4,49.8,58.6,51.6,42.9,82,66,49,30.00,29.89,0,0,0,0.00
2013-6-16,75.6,62.7,52.3,58.2,51.9,44.5,80,69,54,30.10,30.00,0,0,0,0.00
2013-6-17,76.5,63.6,52.7,57.0,51.2,45.0,80,65,46,30.10,29.92,3,0,4,0.00
2013-6-18,68.2,61.5,56.1,52.2,49.6,46.6,74,65,51,30.00,29.92,3,0,3,0.04
2013-6-19,61.0,56.3,53.2,54.6,50.1,46.7,83,80,69,30.09,29.94,0,0,4,0.37
2013-6-20,64.0,57.1,51.6,55.2,51.1,47.0,86,81,72,30.11,30.04,0,0,0,0.02
2013-6-21,73.6,62.0,52.9,55.2,51.5,47.6,85,70,49,30.15,30.07,0,0,0,0.02
2013-6-22,80.2,66.5,50.9,57.6,52.4,44.3,81,62,42,30.07,29.83,0,0,0,0.00
2013-6-23,72.3,65.2,60.4,61.9,57.3,53.0,84,76,59,29.84,29.63,0,0,5,0.16
2013-6-24,64.0,60.0,56.8,56.2,53.9,51.5,85,80,70,29.71,29.66,0,0,0,0.10
2013-6-25,63.7,60.6,58.1,60.3,56.6,53.9,89,87,84,29.84,29.66,0,0,0,0.49
2013-6-26,69.1,63.1,58.8,60.1,57.8,55.1,90,83,70,30.00,29.83,1,0,4,0.02
2013-6-27,82.2,70.4,59.9,64.8,60.6,55.7,87,72,55,30.11,29.98,0,0,0,0.02
2013-6-28,90.0,75.0,61.0,68.4,61.8,54.8,84,65,45,30.11,29.98,0,0,0,0.00
2013-6-29,87.6,75.2,61.9,65.1,60.4,54.3,80,61,44,30.08,29.92,0,0,0,0.00
2013-6-30,93.0,76.7,61.0,70.3,62.4,53.8,81,63,42,29.94,29.80,0,0,0,0.00
2013-7-1,91.0,77.9,64.9,71.2,64.6,57.2,79,64,52,29.97,29.88,0,0,0,0.00
2013-7-2,91.0,78.2,65.5,71.2,64.1,57.3,78,63,48,30.04,29.95,0,0,0,0.00
2013-7-3,87.1,74.5,63.7,59.8,55.0,50.4,70,53,29,30.08,29.98,0,0,0,0.00
2013-7-4,79.5,68.4,57.6,57.0,51.5,46.6,70,56,44,30.11,29.96,0,0,0,0.00
2013-7-5,76.8,66.4,54.3,55.6,51.1,44.5,74,59,46,30.04,29.90,0,0,0,0.00
2013-7-6,77.9,66.1,54.3,59.0,52.8,45.1,75,63,51,29.94,29.82,0,0,0,0.00
2013-7-7,82.2,69.2,55.0,61.8,55.3,46.5,80,62,48,29.94,29.83,0,0,0,0.00
2013-7-8,83.8,68.0,55.2,60.9,53.7,46.0,78,62,41,30.05,29.94,0,0,0,0.00
2013-7-9,90.1,73.7,56.1,64.7,57.2,47.5,77,58,36,30.04,29.93,0,0,0,0.00
2013-7-10,86.2,72.9,60.4,60.4,55.6,48.8,72,56,39,30.02,29.86,0,0,0,0.00
2013-7-11,78.6,66.5,54.5,52.2,48.5,43.7,69,53,36,30.04,29.90,0,0,0,0.00
2013-7-12,79.0,65.5,51.6,54.0,48.5,41.7,73,56,37,30.05,29.95,0,0,0,0.00
2013-7-13,82.2,67.7,51.3,53.8,48.2,41.0,74,52,32,30.12,29.95,0,0,0,0.00
2013-7-14,88.2,71.8,53.8,58.5,51.0,42.2,69,50,33,30.05,29.90,0,0,0,0.00
2013-7-15,87.4,72.3,54.9,58.4,51.2,42.0,66,48,35,29.96,29.75,0,0,0,0.00
2013-7-16,82.6,70.5,59.5,60.4,54.5,49.1,73,58,41,30.00,29.74,0,0,0,0.00
2013-7-17,81.0,69.0,61.0,59.2,54.4,51.2,71,61,47,30.13,30.00,0,0,0,0.00
2013-7-18,85.6,70.2,55.0,60.6,53.2,45.5,78,57,34,30.16,30.02,0,0,0,0.00
2013-7-19,84.2,70.0,54.3,62.2,54.7,44.0,73,59,46,30.10,29.94,0,0,0,0.00
2013-7-20,82.9,68.6,56.5,62.1,55.4,47.2,77,64,45,30.04,29.88,0,0,0,0.00
2013-7-21,85.8,71.2,54.7,63.7,55.6,45.7,76,59,42,29.94,29.83,0,0,0,0.00
2013-7-22,87.1,71.7,58.8,60.5,54.3,49.0,80,57,34,30.00,29.88,0,0,0,0.00
2013-7-23,92.1,73.5,55.0,62.9,54.9,44.6,75,54,34,30.00,29.88,0,0,0,0.00
2013-7-24,93.0,76.1,58.8,60.7,54.9,48.3,73,50,30,29.99,29.90,0,0,0,0.00
2013-7-25,91.9,76.2,58.1,59.1,52.2,46.8,70,46,24,30.03,29.94,0,0,0,0.00
2013-7-26,91.2,75.8,59.0,59.6,52.9,46.5,67,47,31,30.09,29.98,0,0,0,0.00
2013-7-27,84.0,70.8,55.9,53.2,48.2,41.5,64,46,30,30.15,29.94,0,0,0,0.00
2013-7-28,80.2,66.9,52.2,54.4,49.6,40.5,71,55,40,30.04,29.90,0,0,0,0.00
2013-7-29,80.4,66.5,54.0,57.7,51.6,43.8,74,60,43,30.00,29.89,0,0,0,0.00
2013-7-30,83.1,68.2,53.2,59.8,53.0,43.7,76,59,42,30.10,30.00,0,0,0,0.00
2013-7-31,77.5,65.6,58.1,60.4,54.4,49.1,78,67,55,30.08,29.99,0,0,0,0.00
2013-8-1,63.5,61.4,58.8,55.9,54.3,52.0,82,77,72,30.10,30.03,0,0,0,0.00
2013-8-2,76.5,66.2,59.2,57.6,54.2,50.8,80,66,49,30.12,30.03,0,0,0,0.00
2013-8-3,82.9,67.8,52.5,60.5,53.8,44.3,80,62,44,30.07,29.92,0,0,0,0.00
2013-8-4,89.2,72.2,56.5,64.0,56.1,47.9,77,59,38,29.99,29.84,0,0,0,0.00
2013-8-5,91.0,75.8,59.7,63.6,57.5,50.0,74,55,35,29.97,29.84,0,0,0,0.00
2013-8-6,92.5,76.3,59.7,61.7,54.0,49.6,73,49,25,29.96,29.84,0,0,0,0.00
2013-8-7,77.2,66.6,57.9,56.1,51.3,46.1,69,59,47,30.01,29.89,0,0,0,0.00
2013-8-8,84.0,68.0,56.5,61.3,54.7,47.9,77,64,45,30.03,29.86,0,0,0,0.00
2013-8-9,82.9,71.2,64.2,62.3,59.7,57.1,80,68,46,29.90,29.78,0,0,0,0.02
2013-8-10,79.5,67.6,59.2,60.4,57.0,52.7,81,70,49,30.02,29.88,0,0,0,0.02
2013-8-11,78.1,66.4,59.4,60.5,55.8,52.2,82,69,52,30.04,29.94,0,0,0,0.00
2013-8-12,73.9,65.3,60.1,59.6,55.4,51.6,80,71,59,30.05,29.98,0,0,0,0.00
2013-8-13,84.7,68.3,52.3,61.6,53.8,44.7,79,62,40,30.08,29.88,0,0,0,0.00
2013-8-14,84.9,70.9,57.4,60.6,54.6,49.6,80,59,33,29.94,29.88,0,0,0,0.00
2013-8-15,82.0,72.3,63.3,64.7,60.0,53.9,73,66,52,29.94,29.89,0,0,0,0.00
2013-8-16,83.3,72.6,66.6,67.3,62.3,56.6,84,71,52,30.02,29.92,0,0,0,0.02
2013-8-17,84.7,71.1,57.9,61.3,56.4,50.4,78,61,45,30.06,29.97,0,0,0,0.02
2013-8-18,85.1,71.1,60.6,62.8,57.0,51.4,79,63,41,30.10,29.98,0,0,0,0.00
2013-8-19,86.7,72.0,57.9,61.4,55.6,49.3,77,58,38,30.08,29.96,0,0,0,0.00
2013-8-20,83.5,70.6,57.4,56.9,52.4,48.0,73,55,35,30.09,29.92,0,0,0,0.00
2013-8-21,83.8,70.2,54.1,59.5,52.9,43.2,71,55,43,29.96,29.81,0,0,0,0.00
2013-8-22,80.8,71.1,62.8,62.8,59.2,54.1,81,67,52,29.88,29.80,0,0,0,0.00
2013-8-23,74.5,65.5,59.7,59.4,56.0,53.3,81,72,57,29.93,29.84,0,0,0,0.02
2013-8-24,75.4,65.9,57.9,59.2,54.3,50.0,80,67,51,29.89,29.81,0,0,0,0.00
2013-8-25,66.9,62.1,56.5,61.2,55.2,48.2,86,78,65,29.91,29.86,0,0,0,0.18
2013-8-26,79.5,67.6,59.4,61.3,55.7,51.8,87,68,44,29.94,29.87,0,0,0,0.08
2013-8-27,80.4,64.8,57.7,60.7,55.0,50.9,80,71,51,29.94,29.79,0,0,0,0.00
2013-9-24,52.2,51.6,51.3,48.1,47.7,47.5,87,87,86,29.87,29.85,0,0,0,1.12
2013-9-25,58.8,53.4,49.8,50.7,48.3,46.3,89,83,72,30.02,29.85,0,0,0,0.51
2013-9-26,65.1,55.3,50.0,52.6,48.1,44.8,87,77,59,30.16,30.01,0,0,0,0.02
2013-9-27,56.1,52.1,47.3,51.4,47.4,42.4,90,84,75,30.16,29.94,0,0,4,0.29
2013-9-28,64.9,57.8,52.5,56.1,53.6,49.0,91,86,73,29.93,29.52,3,0,3,1.33
2013-9-29,56.8,53.0,52.0,54.8,50.2,48.8,93,90,88,29.72,29.45,0,0,0,1.71
2013-9-30,56.8,51.8,49.6,52.0,48.3,46.0,90,88,83,30.00,29.65,0,0,0,0.98
2013-10-1,57.9,51.6,47.8,53.6,47.9,43.7,90,87,81,30.18,29.97,0,0,0,0.41
2013-10-2,55.0,48.0,41.4,48.7,43.7,37.4,89,85,78,30.16,30.05,0,0,0,0.22
2013-10-3,55.9,47.9,41.0,49.1,42.9,37.1,91,83,72,30.37,30.15,0,0,0,0.14
2013-10-4,58.3,47.2,38.8,50.9,41.7,34.1,89,81,71,30.41,30.29,0,0,0,0.00
2013-10-5,64.0,51.2,39.9,52.8,44.7,35.1,88,79,66,30.30,30.10,0,0,0,0.00
2013-10-6,72.7,55.2,41.7,58.4,45.5,36.6,87,72,47,30.11,29.94,0,0,0,0.00
2013-10-7,58.3,53.9,50.9,52.6,47.9,43.5,88,80,70,30.14,29.97,0,0,0,0.22
2013-10-8,52.9,50.6,48.2,49.4,46.6,44.5,89,86,83,30.14,29.97,0,0,0,0.16
2013-10-9,54.5,46.8,42.6,49.8,42.7,39.0,88,86,81,30.06,29.94,0,0,0,0.02
2013-10-10,59.5,50.9,43.5,50.4,45.1,39.6,90,81,63,30.06,29.92,0,0,0,0.00
2013-10-11,57.0,52.1,46.2,46.9,44.8,39.8,85,76,65,30.12,30.06,0,0,0,0.00
2013-10-12,56.1,49.9,44.8,48.6,44.1,38.7,87,80,73,30.12,30.03,0,0,0,0.00
2013-10-13,54.5,46.5,41.7,48.5,41.5,36.3,86,83,79,30.25,30.12,0,0,0,0.00
2013-10-14,60.4,47.6,38.3,50.7,41.7,33.6,89,80,69,30.31,30.21,0,0,0,0.00
2013-10-15,63.1,48.6,36.5,48.0,40.4,31.2,86,74,54,30.25,30.08,0,0,0,0.00
2013-10-16,62.1,49.9,39.4,50.5,42.5,34.2,86,76,63,30.12,30.07,0,0,0,0.00
2013-10-17,57.7,48.1,40.1,50.2,42.6,34.7,88,81,75,30.19,30.10,0,0,0,0.00
2013-10-18,62.8,49.9,41.0,52.9,43.5,35.9,89,79,66,30.14,30.04,0,0,0,0.00
2013-10-19,62.6,50.6,41.7,54.0,44.6,36.3,88,80,72,30.12,30.05,0,0,0,0.00
2013-10-20,58.8,49.3,43.3,53.0,44.1,37.9,89,82,77,30.12,30.01,0,0,0,0.00
2013-10-21,60.4,48.9,42.1,54.3,44.0,36.8,89,83,79,30.05,29.93,0,0,0,0.00
2013-10-22,64.0,52.5,42.6,56.3,47.1,37.8,89,82,75,30.02,29.92,0,0,0,0.00
2013-10-23,63.7,52.8,44.4,56.7,47.5,39.6,89,82,76,29.98,29.90,0,0,0,0.00
2013-10-24,54.0,49.5,45.0,50.8,45.6,40.7,90,86,82,30.05,29.95,0,0,0,0.00
2013-10-25,50.7,48.8,44.4,47.8,45.8,40.2,90,89,85,30.23,30.05,0,0,0,0.02
2013-10-26,51.1,49.6,47.8,47.7,46.4,45.1,90,89,87,30.24,30.12,0,0,0,0.02
2013-10-27,52.2,49.2,46.2,49.4,45.7,42.0,91,88,84,30.13,29.79,0,0,0,0.22
2013-10-28,57.4,46.7,38.8,48.1,39.1,31.8,90,76,57,29.87,29.74,0,0,0,0.02
2013-10-29,53.8,42.1,32.7,42.1,34.3,27.4,84,74,59,30.04,29.87,0,0,0,0.00
2013-10-30,56.5,43.8,33.6,45.3,37.0,28.6,86,77,62,30.15,30.03,0,0,0,0.00
2013-10-31,54.5,52.0,49.6,50.8,47.6,43.4,88,85,79,30.23,30.14,0,0,0,0.04
2013-11-1,51.1,49.1,48.0,47.9,46.0,45.0,90,89,87,30.24,29.89,0,0,0,0.02
2013-11-2,53.8,49.5,45.0,49.3,45.0,40.2,92,85,71,30.07,29.77,0,0,0,0.33
2013-11-3,48.9,45.8,42.4,42.9,41.2,38.1,88,84,77,30.16,30.06,0,0,0,0.08
2013-11-4,49.3,46.5,44.2,45.2,43.2,41.1,90,88,86,30.16,30.09,0,0,0,0.08
2013-11-5,51.6,49.8,47.1,49.3,47.4,44.4,92,92,90,30.22,30.08,0,0,0,0.43
2013-11-6,58.6,54.4,51.6,56.6,52.4,49.1,94,93,92,30.25,30.05,0,0,0,0.06
2013-11-7,54.5,51.1,45.3,52.2,48.0,41.9,93,89,83,30.13,29.91,0,0,0,0.35
2013-11-8,53.2,48.0,42.1,48.3,44.4,38.5,90,87,83,30.18,30.07,0,0,0,0.02
2013-11-9,47.3,44.3,41.4,44.0,41.1,38.0,90,88,87,30.07,29.99,0,0,0,0.00
2013-11-10,50.4,44.8,41.2,47.3,41.8,37.9,91,89,88,30.05,30.00,0,0,0,0.00
2013-11-11,47.1,45.0,41.5,44.7,42.5,38.2,92,91,88,30.11,29.98,0,0,0,0.00
2013-11-12,56.1,49.7,45.1,54.4,47.6,42.7,94,92,91,30.40,30.05,0,0,0,0.26
2013-11-13,51.1,48.8,46.8,49.1,46.5,44.6,93,92,91,30.43,30.25,0,0,0,0.02
2013-11-14,50.5,47.5,46.2,47.4,44.9,43.5,92,90,89,30.25,30.07,0,0,0,0.08
2013-11-15,47.8,45.6,43.9,44.8,42.8,41.5,91,90,87,30.07,29.61,0,0,0,0.08
2013-11-16,49.1,46.6,45.0,44.3,42.5,40.9,91,86,79,29.86,29.57,0,0,0,0.08
2013-11-17,52.9,48.6,45.3,45.7,43.2,41.1,88,82,74,30.00,29.87,0,0,0,0.02
2013-11-18,54.7,49.4,46.2,47.2,44.7,41.4,91,84,71,29.97,29.74,0,0,0,0.39
2013-11-19,54.3,49.4,41.4,52.0,46.2,33.5,92,89,73,29.97,29.71,0,0,0,0.24
2013-11-20,44.1,37.3,30.7,37.2,31.0,25.0,84,78,73,30.30,29.97,0,0,0,0.02
2013-11-21,42.4,31.5,25.0,30.4,24.2,20.3,84,75,59,30.51,30.30,0,0,0,0.02
2013-11-22,41.4,30.8,23.5,31.3,24.2,18.6,84,77,66,30.50,30.33,0,0,0,0.00
2013-11-23,44.4,32.4,25.0,34.5,25.9,20.3,84,77,67,30.33,30.11,0,0,0,0.00
2013-11-24,43.7,33.1,26.2,35.8,27.5,21.7,85,80,73,30.23,30.12,0,0,0,0.00
2013-11-25,43.0,33.4,27.7,36.6,28.6,23.4,87,83,78,30.31,30.24,0,0,0,0.00
2013-11-26,42.6,35.0,29.1,38.7,31.1,25.2,88,86,84,30.24,30.02,0,0,0,0.00
2013-11-27,45.7,37.2,30.7,40.5,33.1,27.2,89,85,81,30.03,29.91,0,0,0,0.00
2013-11-28,44.4,35.5,30.0,39.9,31.5,26.3,89,85,83,30.17,29.97,0,0,0,0.00
2013-11-29,44.1,36.4,29.1,40.9,33.1,25.7,90,88,86,30.33,30.16,0,0,0,0.00
2013-11-30,48.6,43.2,37.9,45.2,40.2,35.0,91,89,87,30.36,30.23,0,0,0,0.00
2013-12-1,54.7,52.0,47.7,51.1,48.6,44.3,92,88,82,30.23,29.97,5,0,7,0.39
2013-12-2,51.6,43.6,36.7,49.0,39.6,32.6,91,86,78,30.03,29.92,5,0,5,0.84
2013-12-3,39.9,34.6,28.2,36.3,30.8,22.8,89,86,79,30.21,30.01,0,0,0,0.02
2013-12-4,33.6,26.4,21.4,26.7,20.7,16.6,85,79,68,30.28,30.20,0,0,0,0.00
2013-12-5,29.8,23.4,17.4,23.9,18.0,12.5,84,80,75,30.25,30.11,0,0,0,0.00
2013-12-6,28.8,25.7,22.8,24.8,21.6,17.9,86,84,81,30.11,29.86,0,0,0,0.00
2013-12-7,26.1,19.3,11.8,20.8,13.9,5.9,85,79,73,30.38,29.97,0,0,0,0.00
2013-12-8,21.9,14.2,7.2,15.8,8.5,1.6,80,78,76,30.55,30.38,0,0,0,0.00
2013-12-9,26.1,16.0,10.2,21.2,10.8,4.9,83,80,78,30.58,30.49,0,0,0,0.00
2013-12-10,33.8,27.1,23.4,28.2,22.4,18.9,85,82,78,30.51,30.36,0,0,0,0.04
2013-12-11,33.6,23.5,18.1,28.3,18.7,13.2,84,82,78,30.47,30.19,0,0,0,0.04
2013-12-12,38.1,24.0,17.1,35.7,19.8,12.7,91,84,79,30.41,30.08,0,0,0,0.16
2013-12-13,47.3,34.2,16.9,45.4,31.3,12.5,93,89,82,30.37,30.08,0,0,0,0.18
2013-12-14,47.5,38.6,28.2,45.6,36.5,13.0,94,92,86,30.42,30.12,0,0,0,0.16
2013-12-15,47.1,39.7,21.0,45.2,37.7,13.0,94,93,84,30.44,30.09,0,0,0,0.18
2013-12-16,46.2,40.4,18.0,44.3,38.4,13.6,94,92,83,30.43,30.14,0,0,0,0.02
2013-12-17,46.2,38.6,34.9,44.3,36.4,32.5,94,92,91,30.43,30.15,0,0,0,0.02
2013-12-18,45.7,36.9,20.3,44.1,34.6,15.9,94,91,83,30.43,30.02,0,0,0,0.06
2013-12-19,45.7,35.6,29.5,44.1,33.2,26.8,94,91,90,30.42,30.02,0,0,0,0.06
2013-12-20,42.1,34.6,29.8,39.5,32.2,27.0,93,91,90,30.43,29.92,0,0,0,0.14
2013-12-21,49.1,39.8,29.3,47.4,37.8,26.8,94,92,90,30.41,29.93,0,0,0,0.16
2013-12-22,50.5,43.5,29.5,48.8,41.6,27.0,94,93,90,30.39,29.94,0,0,0,0.16
2013-12-23,50.5,43.4,29.5,48.8,41.5,27.0,94,93,90,30.47,29.92,0,0,0,0.16
2013-12-24,50.4,42.3,30.6,48.5,40.4,28.3,94,93,90,30.55,29.95,0,0,0,0.16
2013-12-25,50.5,38.9,31.8,48.8,36.9,29.3,94,92,90,30.55,29.94,0,0,0,0.16
2013-12-26,50.5,36.7,31.8,48.8,34.5,27.3,94,92,90,30.55,29.94,0,0,0,0.10
2013-12-27,35.4,33.7,31.6,33.3,31.5,29.2,92,92,91,30.36,30.17,0,0,0,0.00
2013-12-28,37.9,36.0,34.3,35.8,33.9,32.2,93,92,92,30.47,30.35,0,0,0,0.00
2013-12-29,39.6,37.2,35.8,37.4,35.0,33.6,93,92,91,30.43,30.25,0,0,0,0.00
2013-12-30,41.5,37.8,35.4,39.4,35.5,33.3,92,92,91,30.26,30.15,0,0,0,0.00
2013-12-31,45.7,39.4,36.0,43.8,37.4,33.7,94,92,91,30.31,30.20,0,0,0,0.02
2014-1-1,38.3,36.7,34.3,36.1,34.5,31.9,92,92,91,30.33,30.23,0,0,0,0.02
2014-1-2,42.8,38.2,34.2,40.7,36.1,32.0,93,92,92,30.24,30.04,0,0,0,0.00